TimeEST,TemperatureF,Dew PointF,Humidity,Sea Level PressureIn,VisibilityMPH,Wind Direction,Wind SpeedMPH,Gust SpeedMPH,PrecipitationIn,Events,Conditions,WindDirDegrees,DateUTC
12:56 AM,28.9,18.0,64,30.05,10.0,NW,4.6,-,N/A,,Clear,310,2013-03-04 05:56:00
1:56 AM,28.0,18.0,66,30.06,10.0,Calm,Calm,-,N/A,,Clear,0,2013-03-04 06:56:00
2:56 AM,28.0,18.0,66,30.07,10.0,NW,4.6,-,N/A,,Clear,310,2013-03-04 07:56:00
4:56 AM,25.0,19.0,78,30.12,10.0,Calm,Calm,-,N/A,,Clear,0,2013-03-04 09:56:00
5:56 AM,25.0,19.0,78,30.13,10.0,NNW,3.5,-,N/A,,Clear,330,2013-03-04 10:56:00
7:56 AM,25.0,21.0,85,30.16,10.0,SW,3.5,-,N/A,,Clear,220,2013-03-04 12:56:00
8:56 AM,35.1,19.9,54,30.18,10.0,NNW,3.5,-,N/A,,Clear,340,2013-03-04 13:56:00
9:56 AM,39.9,18.0,41,30.17,10.0,Variable,3.5,-,N/A,,Clear,0,2013-03-04 14:56:00
10:56 AM,43.0,16.0,34,30.17,10.0,Calm,Calm,-,N/A,,Clear,0,2013-03-04 15:56:00
11:56 AM,48.0,16.0,28,30.16,10.0,SSW,8.1,-,N/A,,Clear,210,2013-03-04 16:56:00
12:56 PM,48.9,16.0,27,30.12,10.0,West,3.5,-,N/A,,Clear,280,2013-03-04 17:56:00
1:56 PM,51.1,12.9,22,30.11,10.0,WSW,8.1,-,N/A,,Clear,240,2013-03-04 18:56:00
2:56 PM,53.1,17.1,24,30.07,10.0,South,4.6,-,N/A,,Clear,180,2013-03-04 19:56:00
3:56 PM,53.1,19.0,26,30.06,10.0,South,5.8,-,N/A,,Clear,190,2013-03-04 20:56:00
4:56 PM,55.0,21.0,27,30.06,10.0,Variable,5.8,-,N/A,,Clear,0,2013-03-04 21:56:00
5:56 PM,54.0,27.0,35,30.06,10.0,South,4.6,-,N/A,,Clear,190,2013-03-04 22:56:00
6:56 PM,51.1,27.0,39,30.06,10.0,Calm,Calm,-,N/A,,Clear,0,2013-03-04 23:56:00
7:56 PM,48.9,26.1,41,30.07,10.0,SE,4.6,-,N/A,,Clear,140,2013-03-05 00:56:00
8:56 PM,46.9,27.0,46,30.06,10.0,SSE,3.5,-,N/A,,Clear,150,2013-03-05 01:56:00
9:56 PM,48.0,27.0,44,30.06,10.0,Calm,Calm,-,N/A,,Clear,0,2013-03-05 02:56:00
10:56 PM,43.0,30.9,62,30.07,10.0,Calm,Calm,-,N/A,,Clear,0,2013-03-05 03:56:00
11:56 PM,44.1,28.9,55,30.06,10.0,Calm,Calm,-,N/A,,Clear,0,2013-03-05 04:56:00